TimeEDT,TemperatureF,Dew PointF,Humidity,Sea Level PressureIn,VisibilityMPH,Wind Direction,Wind SpeedMPH,Gust SpeedMPH,PrecipitationIn,Events,Conditions,WindDirDegrees,DateUTC
12:52 AM,73.9,72.0,93,29.62,8.0,WNW,3.5,-,N/A,,Partly Cloudy,290,2013-07-24 04:52:00
1:02 AM,73.4,71.6,94,29.62,8.0,WSW,3.5,-,N/A,,Scattered Clouds,250,2013-07-24 05:02:00
1:13 AM,73.4,71.6,94,29.62,8.0,West,3.5,-,N/A,,Mostly Cloudy,270,2013-07-24 05:13:00
1:23 AM,73.4,71.6,94,29.61,8.0,Calm,Calm,-,N/A,,Mostly Cloudy,0,2013-07-24 05:23:00
1:52 AM,73.9,72.0,93,29.62,7.0,West,3.5,-,N/A,,Clear,260,2013-07-24 05:52:00
2:52 AM,73.9,73.0,97,29.61,7.0,Calm,Calm,-,N/A,,Partly Cloudy,0,2013-07-24 06:52:00
3:52 AM,73.9,72.0,93,29.61,7.0,Calm,Calm,-,N/A,,Partly Cloudy,0,2013-07-24 07:52:00
4:52 AM,73.0,71.1,93,29.61,10.0,West,3.5,-,N/A,,Clear,270,2013-07-24 08:52:00
5:52 AM,73.0,71.1,93,29.62,6.0,Calm,Calm,-,N/A,,Clear,0,2013-07-24 09:52:00
6:52 AM,75.0,72.0,90,29.64,9.0,Calm,Calm,-,N/A,,Clear,0,2013-07-24 10:52:00
7:52 AM,77.0,71.1,82,29.65,10.0,Calm,Calm,-,N/A,,Partly Cloudy,0,2013-07-24 11:52:00
8:52 AM,78.1,71.1,79,29.68,10.0,WSW,4.6,-,N/A,,Mostly Cloudy,250,2013-07-24 12:52:00
9:52 AM,81.0,70.0,69,29.70,10.0,Variable,4.6,-,N/A,,Scattered Clouds,0,2013-07-24 13:52:00
10:52 AM,82.0,69.1,65,29.71,10.0,NNW,10.4,-,N/A,,Scattered Clouds,340,2013-07-24 14:52:00
11:52 AM,82.9,69.1,63,29.72,10.0,NNW,8.1,-,N/A,,Mostly Cloudy,330,2013-07-24 15:52:00
12:52 PM,82.9,68.0,60,29.72,10.0,NNW,6.9,-,N/A,,Mostly Cloudy,330,2013-07-24 16:52:00
1:52 PM,82.0,68.0,62,29.73,10.0,NNW,5.8,-,N/A,,Mostly Cloudy,340,2013-07-24 17:52:00
2:52 PM,84.0,68.0,58,29.75,10.0,NNW,9.2,-,0.00,,Partly Cloudy,340,2013-07-24 18:52:00
3:52 PM,82.9,64.9,54,29.76,10.0,NNW,9.2,18.4,N/A,,Scattered Clouds,340,2013-07-24 19:52:00
4:52 PM,82.0,64.9,56,29.76,10.0,NNW,10.4,-,N/A,,Partly Cloudy,330,2013-07-24 20:52:00
5:52 PM,81.0,63.0,54,29.78,10.0,NNW,8.1,-,N/A,,Scattered Clouds,330,2013-07-24 21:52:00
6:52 PM,80.1,62.1,54,29.80,10.0,North,9.2,-,N/A,,Clear,10,2013-07-24 22:52:00
7:52 PM,77.0,61.0,58,29.83,10.0,North,9.2,-,N/A,,Partly Cloudy,350,2013-07-24 23:52:00
8:52 PM,73.9,57.9,57,29.87,10.0,North,12.7,19.6,N/A,,Partly Cloudy,360,2013-07-25 00:52:00
9:52 PM,73.0,55.9,55,29.89,10.0,NNW,12.7,-,N/A,,Overcast,340,2013-07-25 01:52:00
10:52 PM,71.1,55.0,57,29.90,10.0,North,15.0,-,N/A,,Overcast,360,2013-07-25 02:52:00
11:52 PM,68.0,54.0,61,29.92,10.0,North,13.8,20.7,N/A,,Clear,360,2013-07-25 03:52:00